Date String (YYYY-MM-DD hh:mm:ss) UTC,Instrument flags,Ambient pressure (hPa),Sample flow (lpm),Bypass flow (lpm),Sample temperature (°C),Ambient temperature (°C),ASC tube jacket temperature (°C),LED temperature (°C),Box temperature (°C),Sample RH (%),Span deviation,Mass concentration (μg/m³),Mass concentration (μg/m³),Mass concentration (μg/m³)
DateTimeUTC,F1_M11,P_M11,Q1_M11,Q2_M11,T1_M11,T2_M11,T3_M11,T4_M11,T5_M11,U1_M11,ZSPAN_M11,X0_M11,X2_M11,X1_M11
2022-05-20 16:00:00,,0818.5,5.00,0.00,24.6,23.6,00.0,33.5,26.6,20.6,0000.0,0002.12,0001.88,0001.75
2022-05-20 16:01:00,,0818.5,5.00,0.00,24.6,23.6,00.0,33.5,26.6,20.8,0000.0,0002.09,0001.88,0001.75
2022-05-20 16:02:00,,0818.5,4.98,0.00,24.6,23.6,00.0,33.5,26.6,20.9,0000.0,0002.14,0001.89,0001.74
2022-05-20 16:03:00,,0818.7,5.00,0.00,24.6,23.6,00.0,33.5,26.6,21.1,0000.0,0002.17,0001.90,0001.74
2022-05-20 16:04:00,,0818.7,5.00,0.00,24.6,23.6,00.0,33.5,26.6,21.2,0000.0,0002.18,0001.91,0001.74
2022-05-20 16:05:00,,0818.7,5.00,0.00,24.6,23.6,00.0,33.6,26.6,21.3,0000.0,0002.26,0001.94,0001.74
2022-05-20 16:06:00,,0818.7,5.00,0.00,24.6,23.6,00.0,33.6,26.6,21.2,0000.0,0002.27,0001.95,0001.75
2022-05-20 16:07:00,,0818.7,5.00,0.00,24.6,23.6,00.0,33.6,26.6,21.4,0000.0,0002.27,0001.97,0001.77
2022-05-20 16:08:00,,0818.7,5.00,0.00,24.6,23.6,00.0,33.6,26.6,21.3,0000.0,0002.32,0002.00,0001.79
2022-05-20 16:09:00,,0818.7,5.00,0.00,24.6,23.6,00.0,33.6,26.6,21.3,0000.0,0002.37,0002.04,0001.82
2022-05-20 16:10:00,,0818.7,5.00,0.00,24.6,23.6,00.0,33.6,26.6,21.2,0000.0,0002.34,0002.04,0001.84
2022-05-20 16:11:00,,0818.9,4.98,0.00,24.6,23.6,00.0,33.6,26.6,21.1,0000.0,0002.31,0002.04,0001.86
2022-05-20 16:12:00,,0819.0,5.01,0.00,24.7,23.7,00.0,33.6,26.6,21.3,0000.0,0002.31,0002.04,0001.86
2022-05-20 16:13:00,,0818.9,5.00,0.00,24.7,23.7,00.0,33.6,26.6,21.2,0000.0,0002.29,0002.04,0001.87
2022-05-20 16:14:00,,0818.8,5.00,0.00,24.7,23.7,00.0,33.6,26.6,21.0,0000.0,0002.35,0002.05,0001.89
2022-05-20 16:15:00,,0818.9,5.01,0.00,24.7,23.7,00.0,33.6,26.6,20.9,0000.0,0002.39,0002.05,0001.90
2022-05-20 16:16:00,,0819.0,4.99,0.00,24.7,23.7,00.0,33.6,26.6,20.9,0000.0,0002.36,0002.05,0001.91
2022-05-20 16:17:00,,0818.9,5.00,0.00,24.7,23.7,00.0,33.6,26.6,20.9,0000.0,0002.53,0002.10,0001.93
2022-05-20 16:18:00,,0818.8,5.01,0.00,24.7,23.7,00.0,33.6,26.6,20.9,0000.0,0002.55,0002.11,0001.94
2022-05-20 16:19:00,,0818.7,5.01,0.00,24.7,23.7,00.0,33.6,26.6,20.9,0000.0,0002.59,0002.11,0001.95
2022-05-20 16:20:00,,0818.8,5.00,0.00,24.7,23.7,00.0,33.6,26.6,21.0,0000.0,0002.65,0002.11,0001.94
2022-05-20 16:21:00,,0818.8,5.00,0.00,24.7,23.7,00.0,33.6,26.6,21.1,0000.0,0002.65,0002.13,0001.96
2022-05-20 16:22:00,,0818.7,4.99,0.00,24.7,23.7,00.0,33.6,26.6,21.0,0000.0,0002.70,0002.16,0001.97
2022-05-20 16:23:00,,0818.7,5.00,0.00,24.7,23.7,00.0,33.6,26.6,20.9,0000.0,0002.84,0002.24,0001.99
2022-05-20 16:24:00,,0818.9,4.99,0.00,24.7,23.7,00.0,33.6,26.6,21.1,0000.0,0003.02,0002.33,0002.03
2022-05-20 16:25:00,,0818.9,5.00,0.00,24.7,23.7,00.0,33.6,26.6,21.2,0000.0,0003.10,0002.41,0002.06
2022-05-20 16:26:00,,0818.9,5.01,0.00,24.7,23.7,00.0,33.6,26.6,21.0,0000.0,0003.11,0002.46,0002.11
2022-05-20 16:27:00,,0818.9,4.99,0.00,24.7,23.7,00.0,33.6,26.6,21.0,0000.0,0003.15,0002.50,0002.15
2022-05-20 16:28:00,,0818.9,5.02,0.00,24.7,23.7,00.0,33.6,26.7,21.2,0000.0,0003.07,0002.53,0002.19
2022-05-20 16:29:00,,0819.0,4.99,0.00,24.7,23.7,00.0,33.6,26.7,21.6,0000.0,0003.23,0002.60,0002.24
2022-05-20 16:30:00,,0818.9,5.00,0.00,24.7,23.7,00.0,33.6,26.7,21.4,0000.0,0003.36,0002.68,0002.30
2022-05-20 16:31:00,,0818.9,5.00,0.00,24.7,23.7,00.0,33.6,26.7,21.2,0000.0,0003.49,0002.78,0002.37
2022-05-20 16:32:00,,0818.9,5.00,0.00,24.7,23.7,00.0,33.6,26.7,21.3,0000.0,0003.56,0002.83,0002.40
2022-05-20 16:33:00,,0819.0,5.00,0.00,24.7,23.7,00.0,33.6,26.7,21.3,0000.0,0003.57,0002.84,0002.42
2022-05-20 16:34:00,,0819.0,4.99,0.00,24.7,23.7,00.0,33.6,26.7,21.2,0000.0,0003.48,0002.82,0002.44
2022-05-20 16:35:00,,0819.0,5.01,0.00,24.7,23.7,00.0,33.6,26.7,21.3,0000.0,0003.36,0002.79,0002.47
2022-05-20 16:36:00,,0819.1,4.99,0.00,24.7,23.7,00.0,33.6,26.7,21.5,0000.0,0003.27,0002.75,0002.49
2022-05-20 16:37:00,,0819.2,5.00,0.00,24.7,23.7,00.0,33.7,26.7,21.6,0000.0,0003.25,0002.75,0002.50
2022-05-20 16:38:00,,0819.3,5.00,0.00,24.7,23.7,00.0,33.7,26.7,21.6,0000.0,0003.27,0002.78,0002.51
2022-05-20 16:39:00,,0819.3,5.01,0.00,24.7,23.7,00.0,33.7,26.7,21.7,0000.0,0003.37,0002.81,0002.51
2022-05-20 16:40:00,,0819.1,4.99,0.00,24.7,23.7,00.0,33.7,26.7,21.6,0000.0,0003.31,0002.81,0002.52
2022-05-20 16:41:00,,0819.1,5.01,0.00,24.7,23.8,00.0,33.7,26.7,21.5,0000.0,0003.31,0002.82,0002.53
2022-05-20 16:42:00,,0819.1,4.99,0.00,24.7,23.8,00.0,33.7,26.7,21.4,0000.0,0003.34,0002.81,0002.52
2022-05-20 16:43:00,,0819.2,5.00,0.00,24.8,23.8,00.0,33.7,26.7,21.4,0000.0,0003.37,0002.83,0002.54
2022-05-20 16:44:00,,0819.1,5.01,0.00,24.8,23.8,00.0,33.7,26.7,21.4,0000.0,0003.38,0002.84,0002.54
2022-05-20 16:45:00,,0819.1,5.00,0.00,24.8,23.8,00.0,33.7,26.7,21.5,0000.0,0003.40,0002.84,0002.54
2022-05-20 16:46:00,,0819.1,5.00,0.00,24.8,23.8,00.0,33.7,26.7,21.4,0000.0,0003.46,0002.86,0002.53
2022-05-20 16:47:00,,0819.1,5.00,0.00,24.8,23.7,00.0,33.7,26.7,21.3,0000.0,0003.60,0002.91,0002.53
2022-05-20 16:48:00,,0819.1,4.99,0.00,24.8,23.7,00.0,33.7,26.7,21.6,0000.0,0003.71,0002.96,0002.54
2022-05-20 16:49:00,,0818.9,4.98,0.00,24.8,23.7,00.0,33.7,26.7,21.8,0000.0,0003.78,0002.96,0002.56
2022-05-20 16:50:00,,0818.9,5.01,0.00,24.8,23.7,00.0,33.7,26.7,21.7,0000.0,0004.33,0002.93,0002.57
2022-05-20 16:51:00,,0819.0,4.99,0.00,24.8,23.7,00.0,33.7,26.7,21.6,0000.0,0004.25,0002.91,0002.56
2022-05-20 16:52:00,,0819.0,5.01,0.00,24.8,23.7,00.0,33.7,26.7,21.4,0000.0,0004.17,0002.88,0002.55
2022-05-20 16:53:00,,0819.0,5.01,0.00,24.8,23.7,00.0,33.7,26.7,21.3,0000.0,0003.97,0002.81,0002.52
2022-05-20 16:54:00,,0818.9,5.00,0.00,24.8,23.7,00.0,33.7,26.7,21.2,0000.0,0003.89,0002.76,0002.49
2022-05-20 16:55:00,,0818.9,4.99,0.00,24.8,23.7,00.0,33.7,26.7,21.3,0000.0,0003.87,0002.75,0002.49
2022-05-20 16:56:00,,0819.0,5.00,0.00,24.8,23.8,00.0,33.7,26.7,21.6,0000.0,0003.91,0002.76,0002.50
2022-05-20 16:57:00,,0819.0,5.01,0.00,24.8,23.8,00.0,33.7,26.7,22.0,0000.0,0003.85,0002.74,0002.50
2022-05-20 16:58:00,,0818.9,4.99,0.00,24.8,23.8,00.0,33.7,26.7,23.0,0000.0,0003.80,0002.70,0002.51
2022-05-20 16:59:00,,0818.8,5.00,0.00,24.8,23.8,00.0,33.7,26.7,22.6,0000.0,0003.83,0002.69,0002.51
